STARLINK-33935, 63791

Orbit data source: Space-Track

STARLINK-33935, 63791 is a payload satellite owned by SpaceX/Seattle (US) in LEO that was launched on Fri, 02 May 2025 UTC via an FALCON 9 launch vehicle from the Air Force Eastern Test Range (AFETR). Payload-class satellites include a variety of spacecraft equipped with specific instruments for various scientific and technological missions. These include communications satellites like Starlink; space stations such as the ISS; scientific satellites like the Hubble; Earth observation satellites from companies like Planet Labs, Umbra, and HawkEye 360; GPS; miniature CubeSats for education and research; and military/defense satellites.

Loading next visibility...
Identifier
63791, 2025-091S
Orbit
LEO
Country
Flag of USUS
Related business
Manufacturer
SpaceX/Seattle
Mission
Operational Commercial Communications
Bus & Motor
STARLINK V2MO, Unknown motor
Mass
575 kg wet, ~530 kg dry
Launch date (UTC)
2025-05-02 (1 year ago)
Launch vehicle
FALCON 9
Launch site
Air Force Eastern Test Range (AFETR)
Object type
Payload
Rocket body
Debris
Shape & HBR
Box + 2 Pan, 17.7 m
Radar Cross Section
36.964 m², Large (>1 m²)

Expand to show TLE details & history
Last TLE update: 18 hours ago

TLE from 18 hours ago
0 STARLINK-33935
1 63791U 25091S   26171.11877810  .00010565  00000-0  39279-3 0  9993
2 63791  43.0027 194.3919 0001561 279.9618  80.1058 15.27587418 64678
Epoch: 2026-06-20T02:51Z
TLE epoch observation values (Epoch: 2026-06-20T02:51:02.427Z)
Latitude
Longitude
-116.70619°
Altitude
482.619 km
Speed
7.626 km/s
True Right ascension
12h 57m 34s
True Declination
0° 00' 00"
Sunlit
Object was in daylight at epoch
Visualization orbit readout
Latitude
Unknown
Longitude
Unknown
Altitude
Unknown
Speed
Unknown
Apparent Right ascension
Unknown
Apparent Declination
Unknown
Sunlit
N/A
Visualization observer readout
Local Sidereal Time
07:17:06
Azimuth
Unknown
Elevation
Unknown
Doppler factor
Unknown
Orbital elements
Apogee altitude
486.043 km
Perigee altitude
483.9 km
Semi-major axis
6,863.109 km
Eccentricity
0.00016
Inclination
43.0027°
RAAN
194.3919°
Arg. of periapsis
279.9618°
True anomaly
80.12342°
Mean anomaly
80.1058°
Eccentric anomaly
80.11461°
Mean motion
3.81735 °/min
Orbital period
94.31 mins
BSTAR
0.00039279
Loading maneuver chart data...
Computing Atmospheric mass density...
Loading historical data...
Loading historical data...
Loading historical data...
Loading historical data...
Loading historical data...
Loading historical data...
Loading historical data...

Documentation

Showing up to 5 results
|